ASTRA 2E

Last updated on Thu Jul 03 2025 00:02:46 GMT+0000 (Coordinated Universal Time)

1 39285U 13056A 25183.41155892 .00000157 00000+0 00000+0 0 9997 2 39285 0.0587 338.1232 0002853 133.2150 345.9972 1.00273184 42915
UTC large
Height (km)
Speed (km/s)
/
Latitude / Longitude
Inclination (degrees)
Orbital Period (minutes)
Azimuth
Elevation
Range (km)
Doppler Factor

Next 0 passes for location: London (51.5072 / 0.1276)

Sorry there are no passes over London.